TimeEDT,TemperatureF,Dew PointF,Humidity,Sea Level PressureIn,VisibilityMPH,Wind Direction,Wind SpeedMPH,Gust SpeedMPH,PrecipitationIn,Events,Conditions,WindDirDegrees,DateUTC
12:15 AM,43.5,38.7,83,29.97,10.0,WSW,4.6,-,N/A,,Clear,250,2013-10-17 04:15:00
12:35 AM,42.8,38.3,84,29.97,10.0,WSW,5.8,-,N/A,,Scattered Clouds,250,2013-10-17 04:35:00
12:55 AM,43.0,39.2,86,29.97,10.0,WSW,4.6,-,N/A,,Mostly Cloudy,250,2013-10-17 04:55:00
1:15 AM,43.7,40.3,88,29.96,10.0,WSW,5.8,-,N/A,,Overcast,250,2013-10-17 05:15:00
1:35 AM,43.3,40.3,89,29.96,10.0,WSW,4.6,-,N/A,,Mostly Cloudy,250,2013-10-17 05:35:00
1:55 AM,43.2,40.3,90,29.96,10.0,West,4.6,-,N/A,,Mostly Cloudy,260,2013-10-17 05:55:00
2:15 AM,42.4,39.7,90,29.96,10.0,West,3.5,-,N/A,,Scattered Clouds,260,2013-10-17 06:15:00
2:35 AM,41.5,39.4,92,29.96,10.0,WSW,4.6,-,N/A,,Clear,250,2013-10-17 06:35:00
2:55 AM,41.0,39.2,93,29.96,10.0,Calm,Calm,-,N/A,,Clear,0,2013-10-17 06:55:00
3:15 AM,40.8,39.0,93,29.95,10.0,Calm,Calm,-,N/A,,Clear,0,2013-10-17 07:15:00
3:35 AM,40.3,38.8,95,29.94,10.0,Calm,Calm,-,N/A,,Clear,0,2013-10-17 07:35:00
3:55 AM,40.3,38.8,95,29.94,10.0,Calm,Calm,-,N/A,,Clear,0,2013-10-17 07:55:00
4:15 AM,40.5,38.8,94,29.94,10.0,Calm,Calm,-,N/A,,Clear,0,2013-10-17 08:15:00
4:35 AM,39.7,38.5,95,29.93,10.0,Calm,Calm,-,N/A,,Clear,0,2013-10-17 08:35:00
4:55 AM,38.5,37.6,97,29.94,10.0,Calm,Calm,-,N/A,,Clear,0,2013-10-17 08:55:00
5:15 AM,38.7,37.9,97,29.93,10.0,South,3.5,-,N/A,,Mostly Cloudy,190,2013-10-17 09:15:00
5:35 AM,39.7,39.0,97,29.93,10.0,Calm,Calm,-,N/A,,Mostly Cloudy,0,2013-10-17 09:35:00
5:55 AM,39.7,39.0,97,29.93,10.0,Calm,Calm,-,N/A,,Scattered Clouds,0,2013-10-17 09:55:00
6:15 AM,39.6,38.8,97,29.91,10.0,Calm,Calm,-,N/A,,Scattered Clouds,0,2013-10-17 10:15:00
6:35 AM,39.7,39.0,97,29.92,10.0,Calm,Calm,-,N/A,,Clear,0,2013-10-17 10:35:00
6:55 AM,40.5,39.7,97,29.92,7.0,Calm,Calm,-,N/A,,Clear,0,2013-10-17 10:55:00
7:15 AM,41.0,40.3,97,29.92,10.0,South,3.5,-,N/A,,Scattered Clouds,180,2013-10-17 11:15:00
7:35 AM,41.9,41.0,97,29.94,10.0,WSW,6.9,-,N/A,,Mostly Cloudy,240,2013-10-17 11:35:00
7:55 AM,43.2,41.9,95,29.93,10.0,West,4.6,-,N/A,,Overcast,270,2013-10-17 11:55:00
8:15 AM,43.7,42.3,95,29.93,10.0,WSW,4.6,-,N/A,,Overcast,240,2013-10-17 12:15:00
8:35 AM,44.1,42.8,95,29.93,5.0,WSW,3.5,-,N/A,Rain,Light Rain,240,2013-10-17 12:35:00
8:55 AM,44.2,43.0,95,29.92,3.0,SSW,3.5,-,N/A,Rain,Rain,210,2013-10-17 12:55:00
9:15 AM,44.6,43.3,95,29.93,3.0,South,4.6,-,N/A,Rain,Rain,190,2013-10-17 13:15:00
9:35 AM,44.6,43.7,97,29.91,4.0,SSE,4.6,-,N/A,Rain,Light Rain,150,2013-10-17 13:35:00
9:55 AM,45.0,44.1,97,29.90,4.0,SSE,3.5,-,N/A,Rain,Light Rain,160,2013-10-17 13:55:00
10:15 AM,45.5,44.8,97,29.92,5.0,WSW,5.8,-,N/A,,Overcast,250,2013-10-17 14:15:00
10:35 AM,45.9,45.3,98,29.93,7.0,WSW,6.9,-,N/A,,Overcast,240,2013-10-17 14:35:00
10:55 AM,46.4,45.5,97,29.91,5.0,SW,5.8,-,N/A,,Overcast,230,2013-10-17 14:55:00
11:15 AM,46.8,45.9,97,29.91,7.0,SW,5.8,-,N/A,,Overcast,230,2013-10-17 15:15:00
11:35 AM,47.5,46.4,96,29.91,5.0,SW,8.1,-,N/A,,Overcast,230,2013-10-17 15:35:00
11:55 AM,48.4,46.8,94,29.91,7.0,SW,10.4,-,N/A,,Overcast,220,2013-10-17 15:55:00
12:15 PM,49.1,46.9,92,29.91,7.0,SW,11.5,-,N/A,,Overcast,220,2013-10-17 16:15:00
12:35 PM,49.8,46.8,89,29.91,10.0,WSW,9.2,-,N/A,,Overcast,240,2013-10-17 16:35:00
12:55 PM,49.8,46.6,89,29.91,10.0,WSW,9.2,-,N/A,,Overcast,240,2013-10-17 16:55:00
1:15 PM,49.5,46.0,88,29.90,5.0,WSW,13.8,-,N/A,,Overcast,250,2013-10-17 17:15:00
1:35 PM,48.9,45.9,89,29.89,5.0,West,12.7,-,N/A,,Overcast,260,2013-10-17 17:35:00
1:55 PM,48.7,45.9,90,29.89,7.0,West,13.8,-,N/A,,Overcast,270,2013-10-17 17:55:00
2:15 PM,48.9,45.9,89,29.89,10.0,West,15.0,-,N/A,,Overcast,260,2013-10-17 18:15:00
2:35 PM,49.1,45.5,87,29.88,10.0,WSW,15.0,20.7,N/A,,Overcast,250,2013-10-17 18:35:00
2:55 PM,49.6,45.3,85,29.88,10.0,WSW,18.4,-,N/A,,Overcast,250,2013-10-17 18:55:00
3:15 PM,49.3,44.8,84,29.87,10.0,West,15.0,24.2,N/A,,Overcast,260,2013-10-17 19:15:00
3:35 PM,49.6,44.4,82,29.87,7.0,West,16.1,-,N/A,,Overcast,270,2013-10-17 19:35:00
3:55 PM,49.6,44.4,82,29.88,7.0,West,16.1,-,N/A,,Overcast,260,2013-10-17 19:55:00
4:15 PM,49.6,44.2,82,29.88,10.0,West,18.4,23.0,N/A,,Overcast,270,2013-10-17 20:15:00
4:35 PM,50.0,43.5,78,29.87,10.0,West,18.4,23.0,N/A,,Overcast,270,2013-10-17 20:35:00
4:55 PM,50.4,43.3,77,29.87,10.0,West,17.3,-,N/A,,Overcast,270,2013-10-17 20:55:00
5:15 PM,50.4,43.0,76,29.87,10.0,West,17.3,21.9,N/A,,Overcast,260,2013-10-17 21:15:00
5:35 PM,49.6,43.7,80,29.88,7.0,West,15.0,-,N/A,,Overcast,270,2013-10-17 21:35:00
5:55 PM,48.7,44.1,84,29.89,5.0,West,11.5,-,N/A,,Overcast,270,2013-10-17 21:55:00
6:15 PM,48.6,44.6,86,29.89,7.0,West,9.2,-,N/A,,Overcast,270,2013-10-17 22:15:00
6:35 PM,49.3,43.9,82,29.90,10.0,West,13.8,-,N/A,,Overcast,270,2013-10-17 22:35:00
6:55 PM,48.4,42.8,81,29.91,10.0,West,9.2,-,N/A,,Mostly Cloudy,260,2013-10-17 22:55:00
7:15 PM,47.3,42.3,83,29.91,10.0,West,9.2,-,N/A,,Scattered Clouds,260,2013-10-17 23:15:00
7:35 PM,46.2,41.5,84,29.91,10.0,WSW,6.9,-,N/A,,Clear,250,2013-10-17 23:35:00
7:55 PM,45.9,41.2,84,29.92,10.0,WSW,6.9,-,N/A,,Clear,250,2013-10-17 23:55:00
8:15 PM,45.1,40.5,84,29.93,10.0,WSW,5.8,-,N/A,,Clear,240,2013-10-18 00:15:00
8:35 PM,43.0,40.3,90,29.93,10.0,SSW,5.8,-,N/A,,Clear,210,2013-10-18 00:35:00
8:55 PM,41.9,39.9,93,29.93,10.0,Calm,Calm,-,N/A,,Clear,0,2013-10-18 00:55:00
9:15 PM,41.2,39.6,94,29.93,10.0,SSW,4.6,-,N/A,,Clear,210,2013-10-18 01:15:00
9:35 PM,40.3,38.8,95,29.93,10.0,SSW,6.9,-,N/A,,Clear,200,2013-10-18 01:35:00
9:55 PM,40.3,38.8,95,29.94,10.0,SSW,8.1,-,N/A,,Clear,200,2013-10-18 01:55:00
10:15 PM,40.6,38.8,93,29.94,10.0,SSW,8.1,-,N/A,,Clear,210,2013-10-18 02:15:00
10:35 PM,41.2,39.2,93,29.94,10.0,SSW,8.1,-,N/A,,Clear,210,2013-10-18 02:35:00
10:55 PM,41.5,39.4,92,29.95,10.0,SSW,8.1,-,N/A,,Clear,210,2013-10-18 02:55:00
11:15 PM,41.5,39.4,92,29.94,10.0,SSW,8.1,-,N/A,,Clear,210,2013-10-18 03:15:00
11:35 PM,41.7,39.2,91,29.94,10.0,SSW,6.9,-,N/A,,Clear,210,2013-10-18 03:35:00
11:55 PM,41.2,38.8,91,29.94,10.0,SSW,5.8,-,N/A,,Clear,210,2013-10-18 03:55:00